T 2002 Jan. 14.4151 TT MPCM q 6.052462 (2000.0) P Q Peri. 122.9251 +0.0420867 -0.4226917 Node 289.3856 +0.2218156 +0.8874389 e 1.0 Incl. 73.6796 +0.9741799 -0.1838039 From 45 observations 2002 Feb. 1-Mar. 11.
m1 = 7.5 + 5 logΔ + 10.0 log r